CPLG LEIB-LEPA

Flight info

Callsign CPLG
Flight time 0h 55m
Altitude 2000
Route N1 N LEPA SW CALA PI SA
Aircraft C172/L-SFG/C

Departure

Time 2026-05-01 08:07
Airport Ibiza Airport (LEIB)

Arrival

Time 2026-05-01 09:03
Airport Palma de Mallorca Airport (LEPA)
Time Latitude Longitude Altitude Speed Heading
2026-05-01 07:52 38.87738 1.37636 19 ft 0 kts 65°
2026-05-01 08:03 38.87742 1.37535 19 ft 19 kts 243°
2026-05-01 08:04 38.87531 1.37439 20 ft 23 kts 243°
2026-05-01 08:04 38.87328 1.36951 20 ft 38 kts 242°
2026-05-01 08:05 38.87051 1.36281 19 ft 37 kts 240°
2026-05-01 08:05 38.86951 1.36239 20 ft 13 kts 153°
2026-05-01 08:05 38.86890 1.36294 21 ft 9 kts 118°
2026-05-01 08:06 38.86940 1.36467 21 ft 33 kts 63°
2026-05-01 08:06 38.87389 1.37554 145 ft 88 kts 61°
2026-05-01 08:07 38.88281 1.38415 519 ft 95 kts 351°
2026-05-01 08:07 38.89239 1.37256 790 ft 104 kts 289°
2026-05-01 08:08 38.89439 1.36346 856 ft 108 kts 291°
2026-05-01 08:08 38.90407 1.35315 1275 ft 90 kts 332°
2026-05-01 08:09 38.91528 1.34509 1477 ft 101 kts 335°
2026-05-01 08:09 38.92166 1.34059 1555 ft 104 kts 335°
2026-05-01 08:09 38.92761 1.33623 1780 ft 98 kts 334°
2026-05-01 08:10 38.93962 1.32799 1994 ft 98 kts 342°
2026-05-01 08:10 38.95335 1.32107 2005 ft 110 kts 344°
2026-05-01 08:11 38.96802 1.31413 2009 ft 113 kts 344°
2026-05-01 08:11 38.98311 1.30787 2003 ft 112 kts
2026-05-01 08:12 38.99144 1.32230 2009 ft 111 kts 71°
2026-05-01 08:12 38.99363 1.33183 2002 ft 112 kts 72°
2026-05-01 08:12 38.99796 1.35065 2009 ft 111 kts 72°
2026-05-01 08:13 39.00017 1.36021 2009 ft 111 kts 72°
2026-05-01 08:13 39.00236 1.36970 2006 ft 110 kts 71°
2026-05-01 08:13 39.00651 1.38848 2003 ft 110 kts 72°
2026-05-01 08:14 39.00858 1.39782 1993 ft 107 kts 71°
2026-05-01 08:14 39.00990 1.40383 2000 ft 105 kts 71°
2026-05-01 08:14 39.01186 1.41312 2003 ft 110 kts 71°
2026-05-01 08:14 39.01399 1.42259 2003 ft 110 kts 71°
2026-05-01 08:15 39.01613 1.43204 1999 ft 108 kts 72°
2026-05-01 08:15 39.01983 1.44931 1990 ft 96 kts 72°
2026-05-01 08:15 39.02166 1.45747 1997 ft 96 kts 71°
2026-05-01 08:16 39.02361 1.46605 1993 ft 102 kts 71°
2026-05-01 08:16 39.02559 1.47495 1995 ft 105 kts 71°
2026-05-01 08:16 39.02760 1.48398 2001 ft 106 kts 72°
2026-05-01 08:16 39.02966 1.49304 1996 ft 105 kts 71°
2026-05-01 08:17 39.03233 1.50489 1997 ft 103 kts 71°
2026-05-01 08:17 39.03366 1.51088 1995 ft 102 kts 72°
2026-05-01 08:17 39.03558 1.51955 1992 ft 103 kts 71°
2026-05-01 08:17 39.03744 1.52835 1992 ft 101 kts 73°
2026-05-01 08:18 39.03916 1.53728 1997 ft 103 kts 73°
2026-05-01 08:18 39.04271 1.55516 1995 ft 102 kts 72°
2026-05-01 08:19 39.04650 1.57311 1996 ft 104 kts 72°
2026-05-01 08:19 39.04836 1.58208 1996 ft 104 kts 72°
2026-05-01 08:19 39.05026 1.59110 1999 ft 105 kts 72°
2026-05-01 08:19 39.05218 1.60029 1999 ft 106 kts 73°
2026-05-01 08:20 39.05414 1.60934 1997 ft 104 kts 72°
2026-05-01 08:20 39.05602 1.61830 1998 ft 104 kts 72°
2026-05-01 08:20 39.05784 1.62731 1994 ft 104 kts 72°
2026-05-01 08:20 39.05978 1.63629 1996 ft 103 kts 72°
2026-05-01 08:21 39.06164 1.64522 1995 ft 103 kts 72°
2026-05-01 08:21 39.06351 1.65412 1994 ft 102 kts 72°
2026-05-01 08:21 39.06528 1.66289 1991 ft 101 kts 73°
2026-05-01 08:21 39.06714 1.67173 1997 ft 102 kts 72°
2026-05-01 08:22 39.06898 1.68041 1993 ft 101 kts 73°
2026-05-01 08:22 39.07077 1.68919 1992 ft 102 kts 73°
2026-05-01 08:22 39.07258 1.69796 1992 ft 102 kts 73°
2026-05-01 08:22 39.07440 1.70683 1995 ft 104 kts 73°
2026-05-01 08:23 39.07626 1.71591 2005 ft 106 kts 72°
2026-05-01 08:23 39.07820 1.72534 2010 ft 110 kts 73°
2026-05-01 08:23 39.08015 1.73482 2009 ft 109 kts 72°
2026-05-01 08:23 39.08204 1.74418 2006 ft 107 kts 72°
2026-05-01 08:24 39.08392 1.75336 2001 ft 106 kts 73°
2026-05-01 08:24 39.08580 1.76246 2005 ft 105 kts 73°
2026-05-01 08:24 39.08761 1.77144 2003 ft 104 kts 72°
2026-05-01 08:24 39.08947 1.78057 2002 ft 105 kts 72°
2026-05-01 08:25 39.09133 1.78962 2003 ft 104 kts 72°
2026-05-01 08:25 39.09309 1.79862 1997 ft 103 kts 73°
2026-05-01 08:25 39.09489 1.80746 1999 ft 102 kts 72°
2026-05-01 08:25 39.09665 1.81626 1995 ft 101 kts 72°
2026-05-01 08:26 39.09845 1.82503 1998 ft 102 kts 73°
2026-05-01 08:26 39.10033 1.83383 1999 ft 101 kts 72°
2026-05-01 08:26 39.10207 1.84259 2003 ft 101 kts 73°
2026-05-01 08:26 39.10388 1.85141 1999 ft 103 kts 72°
2026-05-01 08:27 39.10571 1.86031 2002 ft 103 kts 73°
2026-05-01 08:27 39.10752 1.86923 2004 ft 103 kts 73°
2026-05-01 08:27 39.10935 1.87817 2007 ft 104 kts 73°
2026-05-01 08:27 39.11119 1.88722 2004 ft 104 kts 73°
2026-05-01 08:28 39.11307 1.89620 2008 ft 105 kts 72°
2026-05-01 08:28 39.11492 1.90534 2010 ft 105 kts 73°
2026-05-01 08:28 39.11680 1.91441 2012 ft 105 kts 72°
2026-05-01 08:28 39.11868 1.92353 2008 ft 105 kts 73°
2026-05-01 08:29 39.12055 1.93260 2010 ft 105 kts 73°
2026-05-01 08:29 39.12240 1.94171 2013 ft 105 kts 72°
2026-05-01 08:29 39.12422 1.95080 2010 ft 104 kts 72°
2026-05-01 08:29 39.12593 1.95978 2008 ft 103 kts 73°
2026-05-01 08:30 39.12774 1.96871 2007 ft 103 kts 72°
2026-05-01 08:30 39.12949 1.97759 2009 ft 101 kts 73°
2026-05-01 08:30 39.13126 1.98629 2006 ft 102 kts 73°
2026-05-01 08:30 39.13309 1.99508 1999 ft 101 kts 72°
2026-05-01 08:31 39.13484 2.00377 2007 ft 101 kts 73°
2026-05-01 08:31 39.13668 2.01263 2000 ft 102 kts 72°
2026-05-01 08:31 39.13845 2.02144 2006 ft 101 kts 72°
2026-05-01 08:31 39.14023 2.03028 2007 ft 102 kts 73°
2026-05-01 08:32 39.14198 2.03905 2005 ft 102 kts 73°
2026-05-01 08:32 39.14377 2.04794 2002 ft 102 kts 73°
2026-05-01 08:32 39.14553 2.05663 2003 ft 100 kts 72°
2026-05-01 08:32 39.14729 2.06539 2004 ft 101 kts 72°
2026-05-01 08:33 39.14917 2.07418 2007 ft 102 kts 72°
2026-05-01 08:33 39.15110 2.08303 2007 ft 103 kts 68°
2026-05-01 08:33 39.15333 2.09179 2006 ft 104 kts 69°
2026-05-01 08:33 39.15555 2.10060 2007 ft 103 kts 69°
2026-05-01 08:34 39.15807 2.10919 2001 ft 102 kts 60°
2026-05-01 08:34 39.16153 2.11715 2004 ft 103 kts 62°
2026-05-01 08:34 39.16436 2.12570 2006 ft 104 kts 64°
2026-05-01 08:34 39.16710 2.13428 2011 ft 104 kts 65°
2026-05-01 08:35 39.16994 2.14287 2008 ft 104 kts 65°
2026-05-01 08:35 39.17239 2.15170 2008 ft 105 kts 69°
2026-05-01 08:35 39.17473 2.16060 2009 ft 104 kts 69°
2026-05-01 08:35 39.17698 2.16940 2007 ft 104 kts 69°
2026-05-01 08:36 39.17926 2.17812 2007 ft 104 kts 69°
2026-05-01 08:36 39.18155 2.18687 2003 ft 103 kts 69°
2026-05-01 08:36 39.18379 2.19556 2004 ft 101 kts 69°
2026-05-01 08:36 39.18612 2.20418 1999 ft 101 kts 69°
2026-05-01 08:37 39.18844 2.21267 2004 ft 100 kts 68°
2026-05-01 08:37 39.19079 2.22120 2008 ft 101 kts 69°
2026-05-01 08:37 39.19318 2.22977 2007 ft 103 kts 69°
2026-05-01 08:37 39.19554 2.23849 2004 ft 103 kts 69°
2026-05-01 08:38 39.19800 2.24722 2003 ft 104 kts 68°
2026-05-01 08:38 39.20041 2.25602 2008 ft 104 kts 69°
2026-05-01 08:38 39.20286 2.26480 2009 ft 104 kts 68°
2026-05-01 08:38 39.20526 2.27357 2007 ft 104 kts 69°
2026-05-01 08:39 39.20772 2.28230 2007 ft 104 kts 68°
2026-05-01 08:39 39.21009 2.29110 2006 ft 104 kts 69°
2026-05-01 08:39 39.21253 2.29985 2012 ft 103 kts 69°
2026-05-01 08:39 39.21495 2.30859 2013 ft 104 kts 68°
2026-05-01 08:40 39.21974 2.32615 2008 ft 104 kts 69°
2026-05-01 08:40 39.22218 2.33488 2007 ft 103 kts 68°
2026-05-01 08:40 39.22451 2.34352 2007 ft 101 kts 69°
2026-05-01 08:41 39.22688 2.35209 2003 ft 101 kts 69°
2026-05-01 08:41 39.22928 2.36057 2003 ft 101 kts 69°
2026-05-01 08:41 39.23169 2.36911 2004 ft 101 kts 69°
2026-05-01 08:41 39.23410 2.37755 2006 ft 100 kts 69°
2026-05-01 08:42 39.23649 2.38605 2008 ft 101 kts 69°
2026-05-01 08:42 39.23882 2.39405 2003 ft 100 kts 68°
2026-05-01 08:42 39.24117 2.40255 2006 ft 101 kts 69°
2026-05-01 08:42 39.24364 2.41114 2008 ft 101 kts 69°
2026-05-01 08:43 39.24606 2.41950 2005 ft 101 kts 69°
2026-05-01 08:43 39.24844 2.42795 2006 ft 100 kts 69°
2026-05-01 08:43 39.25092 2.43633 2002 ft 100 kts 69°
2026-05-01 08:43 39.25333 2.44453 1999 ft 99 kts 69°
2026-05-01 08:44 39.25582 2.45296 2003 ft 100 kts 69°
2026-05-01 08:44 39.25831 2.46152 2004 ft 101 kts 68°
2026-05-01 08:44 39.26074 2.46998 2004 ft 102 kts 69°
2026-05-01 08:44 39.26324 2.47856 2006 ft 102 kts 69°
2026-05-01 08:45 39.26573 2.48709 2011 ft 102 kts 69°
2026-05-01 08:45 39.26832 2.49574 2008 ft 104 kts 69°
2026-05-01 08:45 39.27086 2.50434 2011 ft 102 kts 69°
2026-05-01 08:45 39.27348 2.51288 2012 ft 102 kts 68°
2026-05-01 08:46 39.27601 2.52143 2012 ft 103 kts 69°
2026-05-01 08:46 39.27860 2.53015 2006 ft 105 kts 69°
2026-05-01 08:46 39.28115 2.53885 2008 ft 105 kts 69°
2026-05-01 08:46 39.28375 2.54773 2008 ft 104 kts 68°
2026-05-01 08:47 39.28628 2.55635 2008 ft 104 kts 69°
2026-05-01 08:47 39.28886 2.56501 2007 ft 103 kts 69°
2026-05-01 08:47 39.29136 2.57371 2008 ft 103 kts 71°
2026-05-01 08:47 39.29370 2.58243 2005 ft 102 kts 71°
2026-05-01 08:48 39.29606 2.59106 2007 ft 103 kts 71°
2026-05-01 08:48 39.29840 2.59976 2000 ft 101 kts 71°
2026-05-01 08:48 39.30067 2.60826 2002 ft 99 kts 71°
2026-05-01 08:48 39.30294 2.61665 2002 ft 99 kts 71°
2026-05-01 08:49 39.30520 2.62504 1994 ft 99 kts 71°
2026-05-01 08:49 39.30742 2.63320 2003 ft 98 kts 71°
2026-05-01 08:49 39.30968 2.64155 1985 ft 99 kts 70°
2026-05-01 08:49 39.31198 2.65011 1940 ft 103 kts 71°
2026-05-01 08:50 39.31454 2.65929 1732 ft 114 kts 70°
2026-05-01 08:50 39.31708 2.66867 1696 ft 110 kts 71°
2026-05-01 08:50 39.31966 2.67808 1588 ft 112 kts 71°
2026-05-01 08:50 39.32220 2.68750 1519 ft 111 kts 71°
2026-05-01 08:51 39.32469 2.69695 1448 ft 111 kts 71°
2026-05-01 08:51 39.32721 2.70632 1378 ft 110 kts 71°
2026-05-01 08:51 39.32970 2.71563 1320 ft 110 kts 71°
2026-05-01 08:51 39.33205 2.72488 1276 ft 108 kts 72°
2026-05-01 08:52 39.33435 2.73410 1205 ft 110 kts 73°
2026-05-01 08:52 39.33664 2.74356 1137 ft 109 kts 72°
2026-05-01 08:52 39.33884 2.75289 1057 ft 109 kts 73°
2026-05-01 08:52 39.34099 2.76226 1010 ft 106 kts 72°
2026-05-01 08:53 39.34299 2.77122 1003 ft 101 kts 74°
2026-05-01 08:53 39.34492 2.77990 1003 ft 101 kts 74°
2026-05-01 08:53 39.34687 2.78852 995 ft 98 kts 75°
2026-05-01 08:53 39.34880 2.79697 1003 ft 98 kts 73°
2026-05-01 08:54 39.35077 2.80547 998 ft 98 kts 75°
2026-05-01 08:54 39.35271 2.81367 1004 ft 94 kts 73°
2026-05-01 08:54 39.35476 2.82171 998 ft 95 kts 63°
2026-05-01 08:54 39.36068 2.82510 998 ft 108 kts 353°
2026-05-01 08:55 39.36796 2.82171 1006 ft 113 kts 345°
2026-05-01 08:55 39.37542 2.81819 1009 ft 114 kts 345°
2026-05-01 08:55 39.38278 2.81453 1010 ft 113 kts 345°
2026-05-01 08:55 39.39011 2.81090 1010 ft 111 kts 344°
2026-05-01 08:56 39.39734 2.80748 1012 ft 111 kts 345°
2026-05-01 08:56 39.40474 2.80459 1009 ft 111 kts 347°
2026-05-01 08:56 39.41209 2.80171 1007 ft 110 kts 347°
2026-05-01 08:56 39.41929 2.79860 1006 ft 109 kts 346°
2026-05-01 08:57 39.42643 2.79546 1009 ft 111 kts 347°
2026-05-01 08:57 39.43385 2.79250 1007 ft 111 kts 350°
2026-05-01 08:57 39.44128 2.79045 1010 ft 108 kts 352°
2026-05-01 08:57 39.44861 2.78833 1010 ft 108 kts 352°
2026-05-01 08:58 39.45602 2.78603 1010 ft 110 kts 353°
2026-05-01 08:58 39.46356 2.78430 1010 ft 111 kts 355°
2026-05-01 08:58 39.47125 2.78249 1009 ft 114 kts 355°
2026-05-01 08:58 39.47907 2.78058 1005 ft 115 kts 354°
2026-05-01 08:59 39.48684 2.77896 1001 ft 110 kts 355°
2026-05-01 08:59 39.49441 2.77732 996 ft 110 kts 355°
2026-05-01 08:59 39.50176 2.77542 990 ft 105 kts 356°
2026-05-01 08:59 39.50890 2.77357 1000 ft 106 kts 354°
2026-05-01 09:00 39.51596 2.77084 1040 ft 108 kts 330°
2026-05-01 09:00 39.52190 2.76513 1128 ft 104 kts 334°
2026-05-01 09:00 39.52789 2.75901 1015 ft 119 kts 304°
2026-05-01 09:00 39.52957 2.74854 998 ft 122 kts 273°
2026-05-01 09:01 39.52678 2.73820 948 ft 121 kts 242°
2026-05-01 09:01 39.52407 2.73194 922 ft 118 kts 240°
2026-05-01 09:01 39.51998 2.72300 890 ft 116 kts 237°
2026-05-01 09:01 39.51710 2.71074 920 ft 113 kts 288°
2026-05-01 09:02 39.51951 2.70473 903 ft 110 kts 312°
2026-05-01 09:02 39.52486 2.69867 890 ft 99 kts 340°
2026-05-01 09:02 39.53138 2.69539 766 ft 100 kts 351°
2026-05-01 09:02 39.53740 2.69406 638 ft 78 kts 13°
2026-05-01 09:03 39.54106 2.69796 414 ft 69 kts 57°
2026-05-01 09:03 39.54356 2.70305 211 ft 59 kts 61°
2026-05-01 09:03 39.54541 2.70713 92 ft 47 kts 58°
2026-05-01 09:03 39.54719 2.71068 68 ft 52 kts 60°
2026-05-01 09:04 39.54902 2.71457 33 ft 43 kts 60°
2026-05-01 09:04 39.55024 2.71721 33 ft 27 kts 59°
2026-05-01 09:04 39.55104 2.71888 33 ft 17 kts 59°
2026-05-01 09:04 39.55157 2.72001 33 ft 13 kts 59°
2026-05-01 09:05 39.55203 2.72098 33 ft 14 kts 58°
2026-05-01 09:05 39.55261 2.72220 33 ft 18 kts 59°
2026-05-01 09:05 39.55281 2.72330 33 ft 10 kts 131°
2026-05-01 09:05 39.55230 2.72374 33 ft 8 kts 151°
2026-05-01 09:06 39.55193 2.72404 33 ft 0 kts 150°
2026-05-01 09:08 39.55192 2.72404 33 ft 2 kts 146°
2026-05-01 09:08 39.55169 2.72471 33 ft 14 kts 64°
2026-05-01 09:08 39.55231 2.72605 33 ft 20 kts 58°
2026-05-01 09:09 39.55313 2.72781 33 ft 25 kts 59°
2026-05-01 09:09 39.55411 2.72992 33 ft 29 kts 59°
2026-05-01 09:09 39.55523 2.73228 33 ft 31 kts 57°
2026-05-01 09:09 39.55619 2.73427 33 ft 19 kts 58°
2026-05-01 09:10 39.55593 2.73523 33 ft 11 kts 149°
2026-05-01 09:10 39.55506 2.73593 33 ft 20 kts 147°
2026-05-01 09:10 39.55347 2.73723 33 ft 34 kts 146°
2026-05-01 09:10 39.55125 2.73894 33 ft 39 kts 148°
2026-05-01 09:11 39.54896 2.74076 33 ft 37 kts 152°
2026-05-01 09:11 39.54774 2.74097 33 ft 13 kts 240°
2026-05-01 09:11 39.54712 2.73966 33 ft 21 kts 238°
2026-05-01 09:11 39.54625 2.73781 33 ft 27 kts 240°
2026-05-01 09:12 39.54525 2.73568 33 ft 28 kts 239°
2026-05-01 09:12 39.54422 2.73352 33 ft 29 kts 237°
2026-05-01 09:12 39.54312 2.73118 33 ft 30 kts 238°
2026-05-01 09:12 39.54211 2.72896 33 ft 17 kts 257°
2026-05-01 09:13 39.54265 2.72826 33 ft 12 kts 323°
2026-05-01 09:13 39.54249 2.72741 33 ft 9 kts 238°
2026-05-01 09:13 39.54255 2.72688 33 ft 7 kts 328°
2026-05-01 09:13 39.54278 2.72668 33 ft 0 kts 333°
2026-05-01 09:14 39.54282 2.72667 33 ft 3 kts 345°
2026-05-01 09:14 39.54288 2.72688 33 ft 5 kts 133°
2026-05-01 09:14 39.54274 2.72692 33 ft 0 kts 179°